Location: Czu?�wek
(50.0431°N, 19.6797°E)
Time: 05:21:34
(UTC+00:00)

Daily predictions for brighter satellites

Satellite Brightness Start Highest point End
(mag) Time Altitude Azimuth Time Altitude Azimuth Time Altitude Azimuth
STARLINK-1212 2.7 00:00:51 10° WNW 00:03:58 75° SSW 00:07:03 10° ESE
STARLINK-1105 2.7 00:01:19 10° WNW 00:04:26 74° SSW 00:07:31 10° ESE
STARLINK-1209 2.9 00:01:35 10° WNW 00:04:41 56° SSW 00:06:55 17° SE
STARLINK-1247 2.7 00:02:14 10° WNW 00:05:21 73° SSW 00:08:28 10° ESE
ATLAS CENTAUR R/B 1.5 00:03:24 10° NW 00:05:47 74° NE 00:10:38 10° ESE
STARLINK-1227 2.7 00:02:42 10° WNW 00:05:48 73° SSW 00:08:53 10° ESE
STARLINK-1208 3.8 00:01:43 10° WNW 00:05:52 73° NNE 00:10:01 10° ESE
STARLINK-1226 2.7 00:03:33 10° WNW 00:06:40 72° SSW 00:09:46 10° ESE
STARLINK-52 4.2 00:07:16 27° SE 00:07:19 27° SE 00:10:05 10° E
STARLINK-1215 2.7 00:04:29 10° WNW 00:07:37 71° SSW 00:10:43 10° ESE
STARLINK-1225 4.3 00:03:52 10° W 00:07:57 55° N 00:12:03 10° E
CZ-4C R/B 4.3 00:07:03 10° SE 00:09:05 12° ESE 00:11:13 10° E
STARLINK-1217 2.7 00:06:15 10° WNW 00:09:22 69° SSW 00:12:28 10° ESE
GEOS 3 Rocket 4.2 00:07:39 26° SSW 00:09:45 36° WSW 00:14:36 10° NW
STARLINK-1229 2.7 00:07:11 10° WNW 00:10:18 68° SSW 00:13:24 10° ESE
STARLINK-1271 3.8 00:06:43 10° WNW 00:10:52 76° NNE 00:15:02 10° ESE
STARLINK-1270 2.7 00:08:03 10° WNW 00:11:09 67° SSW 00:14:15 10° ESE
Cosmos 2058 Rocket 3.6 00:07:41 10° NNW 00:11:53 44° W 00:13:46 28° SSW
Meteor 1-29 4.1 00:09:13 10° N 00:12:18 33° WNW 00:13:32 25° WSW
SL-08 ROCKET BODY 4.5 00:08:22 21° S 00:12:23 73° E 00:18:14 10° NNE
Lacrosse 4 Rocket 4.2 00:08:59 10° NNW 00:12:27 22° NE 00:15:51 10° E
STARLINK-1230 4.3 00:08:51 10° WNW 00:12:56 56° N 00:17:02 10° E
STARLINK-1189 2.7 00:09:53 10° WNW 00:13:00 65° SSW 00:16:05 10° SE
STARLINK-1188 2.7 00:10:46 10° WNW 00:13:53 65° SSW 00:16:58 10° SE
Cosmos 2228 4.4 00:10:51 10° NW 00:14:13 23° W 00:15:32 20° WSW
STARLINK-1235 2.9 00:11:29 10° WNW 00:14:31 52° SSW 00:17:33 10° SE
STARLINK-1187 2.8 00:11:54 10° WNW 00:14:57 57° SSW 00:18:00 10° SE
COSMOS 2455 2.9 00:11:40 21° SW 00:15:45 75° NW 00:21:49 10° NE
STARLINK-1154 3.7 00:11:42 10° WNW 00:15:51 79° NNE 00:20:01 10° ESE
SJ 16-02 2.4 00:11:58 10° NNW 00:16:15 46° ENE 00:20:31 10° SE
STARLINK-1191 2.7 00:13:15 10° WNW 00:16:19 62° SSW 00:19:23 10° SE
STARLINK-1221 2.7 00:14:07 10° WNW 00:17:12 61° SSW 00:20:16 10° SE
Cosmos 2084 4.4 00:15:46 24° S 00:17:49 38° ESE 00:21:58 10° ENE
STARLINK-1243 4.3 00:13:51 10° WNW 00:17:56 56° N 00:22:02 10° E
STARLINK-1222 2.8 00:15:01 10° WNW 00:18:05 60° SSW 00:21:09 10° SE
Starlink 7 placeholder 2.8 00:19:27 40° E 00:19:27 40° E 00:20:53 10° ENE
STARLINK-1214 2.8 00:15:56 10° WNW 00:19:00 59° SSW 00:22:03 10° SE
Meteor 2-10 Rocket 4.1 00:13:59 10° N 00:19:18 56° ENE 00:24:22 10° SSE
SL-14 R/B 3.6 00:18:39 29° SW 00:20:20 51° WNW 00:24:07 10° N
STARLINK-1197 3.7 00:16:41 10° WNW 00:20:51 82° NNE 00:25:00 10° ESE
Cosmos 1386 Rocket 4.5 00:18:10 20° S 00:22:27 83° E 00:28:39 10° N
STARLINK-1236 4.3 00:18:50 10° WNW 00:22:56 56° N 00:27:02 10° E
Cosmos 1300 3.3 00:20:05 10° NNW 00:23:40 40° W 00:25:04 28° SW
Okean 1-7 Rocket 4.2 00:22:03 24° SW 00:24:21 44° WNW 00:28:41 10° N
Cosmos 1174 4.0 00:23:33 25° WSW 00:25:11 51° NW 00:28:54 10° NNE
STARLINK-1198 3.6 00:21:38 10° WNW 00:25:48 85° NNE 00:29:57 10° ESE
Cosmos 921 Rocket 2.9 00:23:34 27° SSW 00:25:50 85° WNW 00:30:11 10° NNE
BREEZE M DEB (TANK) 2.1 00:26:49 34° WSW 00:27:32 49° SSW 00:31:16 10° ESE
STARLINK-1199 3.6 00:26:39 10° WNW 00:30:49 89° NNE 00:34:58 10° ESE
Cosmos 1626 Rocket 3.5 00:29:36 24° SSW 00:32:07 81° W 00:36:29 10° N
STARLINK-1269 4.3 00:28:48 10° WNW 00:32:55 57° N 00:37:01 10° E
Cosmos 2219 3.1 00:27:28 10° NNW 00:33:10 83° WSW 00:38:48 10° SSE
STARLINK-1210 3.5 00:31:37 10° WNW 00:35:47 87° SSW 00:39:56 10° ESE
Cosmos 1626 3.2 00:34:31 22° WSW 00:36:12 32° WNW 00:39:35 10° N
STARLINK-1200 4.3 00:33:49 10° WNW 00:37:56 58° N 00:42:02 10° E
STARLINK-60 2.8 00:36:26 25° WSW 00:38:08 84° SSE 00:41:21 10° ENE
STARLINK-1219 3.5 00:36:36 10° WNW 00:40:45 84° SSW 00:44:54 10° ESE
Nadezhda 1 Rocket 4.2 00:35:08 10° NNW 00:41:08 57° W 00:45:52 17° SSW
STARLINK-1192 4.2 00:38:49 10° WNW 00:42:56 59° N 00:47:02 10° E
FALCON 9 R/B 4.2 00:38:25 17° SW 00:44:03 36° SSE 01:05:21 10° ESE
STARLINK-1211 3.5 00:41:34 10° WNW 00:45:43 80° SSW 00:49:52 10° ESE
MOZ.5/SAFIR/RUBIN 5/SL-8 4.4 00:44:16 21° SSW 00:46:53 39° W 00:51:15 10° NNW
UNK 4.0 00:44:01 19° S 00:47:05 50° W 00:51:36 10° NNW
STARLINK-1244 4.2 00:43:47 10° WNW 00:47:54 60° N 00:52:01 10° E
Cosmos 2297 Rocket 2.1 00:43:09 10° NNW 00:48:50 78° WSW 00:54:28 10° SSE
Cosmos 220 Rocket 4.1 00:46:16 21° SW 00:49:08 71° WNW 00:53:35 10° NNE
AQUA 3.9 00:44:45 10° NNE 00:49:33 79° ESE 00:53:18 16° S
STARLINK-1245 3.5 00:46:34 10° WNW 00:50:43 76° SSW 00:54:51 10° ESE
CZ-4B R/B 3.6 00:45:54 10° NNE 00:51:03 85° ESE 00:55:16 16° SSW
Cosmos 1812 Rocket 3.7 00:46:45 10° NNW 00:51:10 58° W 00:54:30 17° S
STARLINK-1356 4.5 00:50:13 19° S 00:51:15 22° SE 00:53:45 10° E
ERS-2 4.0 00:48:02 10° SE 00:51:17 31° ENE 00:54:33 10° N
STARLINK-1345 4.5 00:50:33 19° S 00:51:35 22° SE 00:54:06 10° E
STARLINK-1355 4.5 00:50:51 19° S 00:51:55 22° SE 00:54:26 10° E
STARLINK-1321 4.5 00:51:10 19° S 00:52:14 22° SE 00:54:46 10° E
Cosmos 2082 4.2 00:46:45 10° NNW 00:52:26 64° ENE 00:58:01 10° SE
STARLINK-1358 4.5 00:51:31 19° S 00:52:36 23° SE 00:55:08 10° E
STARLINK-1138 4.2 00:48:47 10° WNW 00:52:54 61° N 00:57:01 10° E
STARLINK-1332 4.5 00:51:50 19° S 00:52:54 23° SE 00:55:27 10° E
STARLINK-1348 4.5 00:52:10 19° S 00:53:16 23° SE 00:55:49 10° E
SL-4 R/B 2.3 00:49:12 14° WSW 00:53:21 81° SSE 00:58:02 10° ENE
STARLINK-1330 4.4 00:52:29 19° S 00:53:35 23° SE 00:56:08 10° E
STARLINK-1363 4.4 00:52:48 19° S 00:53:55 23° SE 00:56:28 10° E
Cosmos 1437 3.9 00:52:48 20° WSW 00:54:04 27° WNW 00:56:43 10° N
STARLINK-1337 4.4 00:53:07 19° S 00:54:15 23° SE 00:56:49 10° E
STARLINK-1342 4.4 00:53:27 19° S 00:54:36 23° SE 00:57:10 10° E
STARLINK-1364 4.4 00:53:47 19° S 00:54:56 23° SE 00:57:31 10° E
STARLINK-1376 4.4 00:54:07 19° S 00:55:17 24° SE 00:57:52 10° E
STARLINK-1360 4.4 00:54:22 19° S 00:55:32 24° SE 00:58:08 10° E
STARLINK-1203 4.2 00:51:23 10° WNW 00:55:34 63° N 00:59:44 10° E
STARLINK-1233 3.5 00:51:32 10° WNW 00:55:41 72° SSW 00:59:48 10° ESE
STARLINK-1361 4.4 00:54:48 19° S 00:56:00 24° SE 00:58:34 10° E
STARLINK-1367 4.4 00:55:02 19° S 00:56:15 24° SE 00:58:53 10° E
Cosmos 990 Rocket 4.0 00:51:15 10° NNW 00:56:33 87° WSW 01:01:48 10° SSE
STARLINK-1366 4.4 00:55:25 19° S 00:56:37 24° SE 00:59:14 10° E
CBERS-1 4.3 00:52:20 10° NNE 00:57:28 68° ESE 01:02:06 13° S
STARLINK-1143 4.1 00:53:46 10° WNW 00:57:54 63° N 01:02:01 10° E
ATLAS CENTAUR R/B 2.4 00:56:56 12° WSW 01:00:36 39° NW 01:04:27 10° NNE
STARLINK-1204 3.5 00:56:32 10° WNW 01:00:39 68° SSW 01:04:46 10° SE
SL-16 R/B 2.9 00:56:01 15° SSW 01:00:55 45° W 01:06:50 10° NNW
STARLINK-1375 4.5 00:59:43 18° S 01:01:28 27° SE 01:04:28 10° E
Alouette 2 Rocket 4.2 00:55:25 10° NNW 01:02:25 76° W 01:06:56 10° S
STARLINK-1241 4.1 00:58:45 10° WNW 01:02:53 64° NNE 01:07:00 10° E
STARLINK-1350 4.4 01:01:59 18° S 01:03:48 28° SE 01:06:51 10° E
NOSS 3-4 (A) 4.4 00:58:14 10° WSW 01:04:00 43° NNW 01:10:16 10° NE
BREEZE-M R/B 2.9 01:01:07 17° SW 01:04:05 46° SSE 01:06:46 10° E
NOSS 3-4 (C) 4.4 00:58:19 10° WSW 01:04:06 43° NNW 01:10:23 10° NE
FALCON 9 DEB 3.4 01:02:07 20° SW 01:04:14 53° SSE 01:07:37 10° ENE
Cosmos 1602 Rocket 3.9 01:01:58 18° SW 01:04:57 49° WNW 01:09:10 10° N
Cosmos 1825 Rocket 3.7 01:01:14 13° S 01:05:05 70° E 01:09:26 10° NNE
STARLINK-1238 3.6 01:01:29 10° WNW 01:05:36 64° SSW 01:09:41 10° SE
STARLINK-1352 4.4 01:04:09 18° SSW 01:06:05 29° SE 01:09:11 10° E
Cosmos 1455 2.2 01:02:27 10° NNW 01:06:10 62° W 01:09:23 13° S
STARLINK-29 2.8 01:04:34 18° WSW 01:06:47 77° SSE 01:09:59 10° ENE
STARLINK-1239 4.0 01:03:44 10° WNW 01:07:52 66° NNE 01:12:00 10° E
ATLAS 3B R/B 3.7 01:02:31 10° WNW 01:07:53 25° WSW 01:12:42 12° SSW
STARLINK-1368 4.3 01:06:14 17° SSW 01:08:13 30° SE 01:11:22 10° E
BREEZE-M DEB (TANK) 3.0 01:09:30 20° S 01:10:14 24° SSE 01:12:31 10° E
STARLINK-1369 4.3 01:08:12 17° SSW 01:10:15 31° SE 01:13:24 10° E
IRS-1D 3.7 01:04:54 10° NNE 01:10:17 85° ESE 01:15:16 12° SSW
STARLINK-1201 3.6 01:06:30 10° WNW 01:10:35 60° SSW 01:14:39 10° SE
Meteor 1-28 Rocket 4.3 01:07:03 10° SE 01:10:39 45° ENE 01:14:17 10° N
GP-B 3.1 01:07:39 10° N 01:12:05 71° W 01:16:11 12° SSW
STARLINK-1372 4.2 01:10:18 17° SSW 01:12:26 32° SE 01:15:37 10° E
STARLINK-1240 4.0 01:08:44 10° WNW 01:12:52 68° NNE 01:17:00 10° E
STARLINK-1378 4.2 01:12:32 17° SSW 01:14:46 34° SE 01:18:00 10° ENE
BREEZE-M DEB (TANK) 0.9 01:12:39 12° W 01:14:53 80° S 01:17:26 10° E
STARLINK-1329 4.2 01:12:59 17° SSW 01:15:15 34° SE 01:18:30 10° ENE
STARLINK-1206 3.6 01:11:28 10° WNW 01:15:33 56° SSW 01:19:37 10° SE
Cosmos-2242 2.9 01:11:31 10° NNW 01:15:48 72° W 01:20:01 10° S
STARLINK-1365 4.1 01:13:46 17° SSW 01:16:04 35° SE 01:19:20 10° ENE
STARLINK-1379 4.1 01:14:39 16° SSW 01:16:58 35° SE 01:20:13 10° ENE
STARLINK-1362 4.1 01:14:57 16° SSW 01:17:17 35° SE 01:20:33 10° ENE
STARLINK-1216 3.9 01:13:42 10° WNW 01:17:51 70° NNE 01:22:00 10° E
Cosmos 1400 Rocket 3.5 01:14:04 10° N 01:18:08 57° ENE 01:22:12 10° SSE
STARLINK-1373 4.1 01:17:22 16° SSW 01:19:47 36° SE 01:23:05 10° ENE
STARLINK-1205 3.7 01:16:28 10° WNW 01:20:31 53° SSW 01:24:33 10° SE
STARLINK-1390 4.0 01:19:27 15° SSW 01:21:56 37° SE 01:25:16 10° ENE
SL-08 R/B 3.3 01:17:32 10° SSE 01:22:15 86° WSW 01:26:56 10° NNW
Cosmos 2181 Rocket 4.1 01:15:58 10° NNW 01:22:20 70° W 01:28:43 10° S
STARLINK-1237 3.9 01:18:42 10° WNW 01:22:51 73° NNE 01:27:00 10° ESE
RESURS DK-1 3.7 01:19:17 11° WSW 01:22:51 31° NW 01:26:35 10° NNE
Cosmos 2227 Rocket 2.4 01:18:50 10° NW 01:24:20 50° WSW 01:29:46 10° S
IRS-P3 4.2 01:19:44 10° NNE 01:25:06 82° ESE 01:30:27 10° SSW
STARLINK-1218 3.8 01:21:27 10° WNW 01:25:28 49° SSW 01:29:28 10° SE
CZ-2D R/B 2.8 01:20:44 10° N 01:25:41 42° WNW 01:30:15 12° SW
STARLINK-1202 3.8 01:23:41 10° WNW 01:27:51 75° NNE 01:32:00 10° ESE
CZ-4C R/B 4.3 01:24:28 10° SE 01:27:54 44° ENE 01:31:23 10° N
ADEOS II 2.1 01:23:16 10° NNE 01:28:35 87° WNW 01:33:50 10° SSW
Cosmos 1763 Rocket 3.5 01:23:45 11° SSW 01:28:39 85° ESE 01:33:46 10° NNE
Cosmos 1697 Rocket 3.1 01:23:23 10° S 01:28:56 60° ESE 01:34:32 10° NE
STARLINK-1254 3.8 01:26:27 10° WNW 01:30:25 46° SSW 01:34:24 10° SE
Cosmos 1703 3.3 01:26:47 12° SSW 01:30:29 67° WNW 01:34:25 10° N
ATLAS 2AS CENTAUR R/B 4.1 01:25:57 10° W 01:33:26 41° NNW 01:40:43 10° NE
Resurs 1-4 Rocket 3.1 01:30:37 10° N 01:35:22 35° WNW 01:40:07 10° SW
STARLINK-1231 3.9 01:31:28 10° WNW 01:35:25 43° SW 01:39:21 10° SE
STARLINK-1246 3.7 01:33:38 10° WNW 01:37:48 81° NNE 01:41:58 10° ESE
STARLINK-1232 4.0 01:36:27 10° WNW 01:40:22 40° SW 01:44:16 10° SE
CZ-2C R/B 4.3 01:37:20 10° NNE 01:40:42 32° E 01:44:05 10° SSE
ARIANE 5 R/B 2.6 01:35:36 10° NNE 01:40:43 77° ESE 01:45:45 10° S
STARLINK-1224 3.7 01:38:37 10° WNW 01:42:48 84° NNE 01:46:57 10° ESE
STARLINK-52 3.1 01:40:01 10° WSW 01:43:14 74° NNW 01:46:27 10° ENE
Cosmos 1758 Rocket 4.2 01:39:23 11° SW 01:43:23 41° WNW 01:47:33 10° N
H-2A R/B 2.2 01:40:37 10° SSE 01:44:56 87° E 01:49:24 10° NNW
STARLINK-1208 4.1 01:41:27 10° WNW 01:45:18 38° SW 01:49:08 10° SSE
Spot 4 Rocket 4.4 01:41:18 10° NNE 01:46:27 65° ESE 01:51:33 10° S
Meteor 1-27 4.3 01:41:09 10° NNW 01:46:46 90° E 01:52:20 10° S
STARLINK-1225 3.7 01:43:37 10° WNW 01:47:47 88° NNE 01:51:56 10° ESE
Cosmos 1898 Rocket 4.2 01:44:22 10° NW 01:49:12 36° WSW 01:54:00 10° SSW
STARLINK-1271 4.2 01:46:29 10° WNW 01:50:16 35° SW 01:54:03 10° SSE
Cosmos 2298 Rocket 4.3 01:46:04 10° NNW 01:51:24 76° ENE 01:56:42 10° SSE
Lacrosse 4 Rocket 1.4 01:47:16 10° NW 01:51:38 71° WSW 01:55:51 10° SSE
STARLINK-1230 3.6 01:48:35 10° WNW 01:52:45 89° SSW 01:56:55 10° ESE
Starlink 7 placeholder 3.5 01:50:57 10° WNW 01:52:47 31° N 01:54:39 10° ENE
IDEFIX/ARIANE 42P 3.3 01:48:53 10° NNE 01:54:06 56° E 01:59:16 10° S
Cosmos 1656 4.0 01:48:35 10° SW 01:54:11 58° NW 01:59:45 10° NNE
SJ 16-02 2.6 01:51:05 10° NW 01:54:34 23° W 01:58:02 10° SSW
Cosmos 2285 Rocket 4.2 01:48:37 10° NNW 01:54:48 53° WSW 02:00:55 10° S
STARLINK-1154 4.3 01:51:29 10° WNW 01:55:13 33° SW 01:58:57 10° SSE
CZ-4C R/B 2.3 01:51:08 10° SSW 01:56:09 71° SE 02:02:14 10° NE
Cosmos 2084 4.4 01:53:04 10° WSW 01:57:20 43° NW 02:01:37 10° NE
Cosmos 468 Rocket 4.4 01:52:43 10° SW 01:57:42 51° WNW 02:02:43 10° NNE
STARLINK-1243 3.6 01:53:34 10° WNW 01:57:44 85° SSW 02:01:53 10° ESE
Cosmos 1570 Rocket 4.1 01:53:51 10° SSW 01:59:11 85° WNW 02:04:32 10° NNE
Cosmos 1937 Rocket 4.0 01:54:40 10° NW 01:59:31 39° WSW 02:04:23 10° S
Cosmos 1953 Rocket 4.0 01:55:18 10° SSW 01:59:39 50° WNW 02:04:00 10° N
STARLINK-1197 4.4 01:56:30 10° W 02:00:10 31° SW 02:03:50 10° SSE
Cosmos 2208 Rocket 4.1 01:56:49 10° SSW 02:02:03 86° ESE 02:07:25 10° NNE
Uosat 12 SS-18 rocket 4.0 01:57:46 10° NW 02:02:04 70° SW 02:06:31 10° SSE
Cosmos 2369 3.8 01:56:42 10° SSW 02:02:21 86° WNW 02:08:03 10° NNE
STARLINK-1236 3.6 01:58:33 10° WNW 02:02:43 81° SSW 02:06:52 10° ESE
NOSS 7 (H) 4.1 01:59:56 10° SW 02:03:06 79° NW 02:06:04 10° NE
STARLINK-1198 4.5 02:01:30 10° W 02:05:05 29° SW 02:08:40 10° SSE
Cosmos 2360 4.4 01:59:37 10° SSW 02:05:18 79° ESE 02:11:02 10° NNE
Cosmos 1842 Rocket 3.6 02:00:54 10° NNW 02:05:25 80° W 02:09:54 10° S
